Tracking 32142 objects as of 12-Nov-2025
HD Live streaming from Space Station
objects crossing your sky now

STARLINK-30834

Track STARLINK-30834 now!
10-day predictions
STARLINK-30834 is classified as:


NORAD ID: 58151
Int'l Code: 2023-166B
Perigee: 480.9 km
Apogee: 483.6 km
Inclination: 53.2 °
Period: 94.1 minutes
Semi major axis: 6853 km
RCS: Unknown
Launch date: October 29, 2023
Source: United States (US)
Launch site: AIR FORCE WESTERN TEST RANGE (AFWTR)
Your satellite tracking list
Your tracking list is empty




NASA's NSSDC Master Catalog

Two Line Element Set (TLE):
1 58151U 23166B   25316.24998539  .00061198  00000-0  20590-2 0  9997
2 58151  53.1612  45.2519 0001926  91.7747 268.3475 15.30238108115192
Source of the keplerian elements: AFSPC